{"data":{"norad_id":43796,"epoch":"2026-05-25T04:25:39.239616Z","epoch_age_seconds":52878,"freshness":"FRESH","line1":"1 43796U 18099AQ  26145.18448194  .00017750  00000+0  53899-3 0  9999","line2":"2 43796  97.4454 214.6667 0007144  20.0793 340.0730 15.34117684409160","mean_motion":15.34117684,"eccentricity":0.0007144,"inclination_deg":97.4454,"raan_deg":214.6667,"arg_perigee_deg":20.0793,"mean_anomaly_deg":340.073,"bstar":0.00053899,"rev_number":40916,"period_min":93.8650284146,"perigee_km":458.6547757173,"apogee_km":468.43016734622,"semimajor_km":6841.6794715318,"source":"CELESTRAK","updated_at":"2026-05-25T13:37:55.897833Z"}}